QPF
0.06 0.08 0.10 0.13 0.13 0.11 0.09 0.08 0.08 0.09 0.08 0.08 0.08 0.06 0.05 0.05 0.04 0.03 0.02 0.02 0.02 0.02 0.03 0.03 0.03 0.02 0.02 0.02 0.02 0.01 0.01 0.01 0.01 0.01 0.01 0.01 0.01 0.01 0.01 0.01 0.01 0.01 0.01
0.04 0.06 0.08 0.11 0.13 0.13 0.11 0.11 0.10 0.10 0.09 0.08 0.07 0.07 0.06 0.05 0.05 0.04 0.03 0.02 0.02 0.02 0.03 0.04 0.04 0.03 0.02 0.02 0.02 0.02 0.01 0.01 0.01 0.01 0.01 0.01 0.01 0.01 0.01 0.00 0.01 0.01 0.01
0.03 0.06 0.07 0.08 0.10 0.11 0.11 0.11 0.12 0.12 0.11 0.09 0.07 0.07 0.06 0.06 0.05 0.04 0.03 0.03 0.02 0.03 0.03 0.04 0.04 0.04 0.03 0.03 0.02 0.03 0.03 0.02 0.02 0.02 0.01 0.01 0.01 0.01 0.01 0.01 0.01 0.01 0.01
0.02 0.03 0.05 0.07 0.08 0.10 0.10 0.10 0.11 0.14 0.13 0.11 0.08 0.07 0.07 0.06 0.06 0.05 0.04 0.03 0.03 0.02 0.02 0.03 0.04 0.04 0.04 0.04 0.03 0.03 0.03 0.03 0.03 0.03 0.02 0.02 0.01 0.01 0.01 0.01 0.01 0.01 0.01
0.03 0.02 0.03 0.04 0.06 0.08 0.09 0.08 0.10 0.11 0.12 0.13 0.12 0.10 0.07 0.06 0.06 0.05 0.04 0.03 0.03 0.02 0.02 0.02 0.03 0.03 0.04 0.04 0.04 0.04 0.04 0.04 0.04 0.04 0.04 0.03 0.02 0.01 0.01 0.01 0.01 0.01 0.02
0.04 0.03 0.03 0.04 0.05 0.06 0.07 0.07 0.09 0.10 0.11 0.12 0.13 0.13 0.11 0.08 0.07 0.06 0.05 0.05 0.04 0.03 0.03 0.03 0.02 0.02 0.02 0.03 0.03 0.03 0.04 0.04 0.04 0.04 0.03 0.03 0.03 0.03 0.02 0.02 0.01 0.01 0.01
0.05 0.04 0.03 0.03 0.04 0.05 0.06 0.06 0.08 0.10 0.12 0.14 0.15 0.15 0.14 0.11 0.11 0.08 0.06 0.05 0.05 0.04 0.04 0.03 0.03 0.02 0.01 0.02 0.02 0.02 0.03 0.04 0.04 0.04 0.03 0.02 0.02 0.02 0.02 0.02 0.01 0.01 0.01
0.05 0.05 0.03 0.03 0.04 0.05 0.06 0.06 0.06 0.09 0.11 0.14 0.16 0.16 0.16 0.15 0.12 0.10 0.09 0.07 0.06 0.05 0.05 0.04 0.04 0.03 0.02 0.01 0.01 0.01 0.02 0.03 0.04 0.04 0.03 0.03 0.02 0.02 0.02 0.02 0.01 0.01 0.01
0.05 0.04 0.04 0.03 0.04 0.04 0.05 0.06 0.06 0.06 0.08 0.11 0.13 0.15 0.14 0.12 0.09 0.09 0.09 0.08 0.07 0.06 0.06 0.06 0.05 0.04 0.03 0.02 0.01 0.01 0.01 0.01 0.03 0.03 0.03 0.03 0.02 0.02 0.02 0.02 0.01 0.01 0.01
0.06 0.04 0.04 0.03 0.04 0.05 0.05 0.06 0.07 0.06 0.07 0.08 0.11 0.12 0.12 0.10 0.08 0.08 0.08 0.07 0.07 0.06 0.06 0.06 0.06 0.05 0.03 0.03 0.02 0.01 0.01 0.01 0.02 0.03 0.03 0.03 0.04 0.04 0.03 0.02 0.02 0.02 0.01
0.07 0.05 0.04 0.03 0.03 0.04 0.06 0.06 0.08 0.08 0.07 0.07 0.08 0.09 0.10 0.10 0.09 0.08 0.08 0.08 0.08 0.07 0.06 0.06 0.06 0.06 0.05 0.03 0.02 0.02 0.02 0.01 0.02 0.03 0.03 0.04 0.04 0.04 0.04 0.04 0.03 0.03 0.02
0.06 0.06 0.05 0.04 0.03 0.04 0.05 0.06 0.07 0.08 0.08 0.08 0.07 0.08 0.09 0.09 0.08 0.08 0.08 0.08 0.09 0.08 0.08 0.08 0.08 0.07 0.06 0.04 0.03 0.02 0.02 0.01 0.02 0.02 0.03 0.04 0.03 0.03 0.03 0.03 0.04 0.04 0.05
0.05 0.06 0.05 0.05 0.05 0.05 0.05 0.05 0.06 0.08 0.08 0.09 0.08 0.08 0.07 0.07 0.07 0.07 0.09 0.10 0.12 0.10 0.10 0.10 0.08 0.07 0.07 0.06 0.04 0.03 0.02 0.02 0.02 0.02 0.03 0.04 0.04 0.03 0.02 0.02 0.03 0.03 0.04
0.04 0.05 0.05 0.04 0.05 0.06 0.06 0.07 0.07 0.08 0.09 0.09 0.08 0.08 0.08 0.07 0.08 0.08 0.09 0.12 0.14 0.13 0.12 0.10 0.08 0.07 0.07 0.06 0.05 0.03 0.03 0.03 0.03 0.03 0.03 0.04 0.05 0.05 0.03 0.02 0.01 0.01 0.01
0.04 0.04 0.05 0.04 0.05 0.06 0.07 0.08 0.08 0.09 0.09 0.10 0.10 0.09 0.09 0.08 0.07 0.08 0.08 0.10 0.13 0.14 0.13 0.11 0.09 0.08 0.07 0.08 0.07 0.05 0.03 0.04 0.04 0.05 0.05 0.05 0.06 0.06 0.04 0.03 0.02 0.01 0.01
0.04 0.05 0.05 0.05 0.05 0.06 0.08 0.08 0.09 0.09 0.09 0.09 0.10 0.10 0.09 0.09 0.09 0.08 0.09 0.10 0.11 0.12 0.12 0.10 0.08 0.07 0.08 0.08 0.08 0.06 0.05 0.06 0.05 0.05 0.06 0.06 0.06 0.06 0.04 0.02 0.02 0.01 0.00
0.04 0.05 0.05 0.05 0.05 0.06 0.07 0.08 0.08 0.08 0.08 0.09 0.11 0.11 0.09 0.08 0.09 0.09 0.09 0.10 0.11 0.11 0.11 0.09 0.08 0.07 0.07 0.08 0.08 0.06 0.05 0.06 0.05 0.06 0.07 0.08 0.07 0.06 0.03 0.02 0.01 0.01 0.00
0.05 0.06 0.05 0.05 0.06 0.07 0.08 0.09 0.09 0.08 0.08 0.08 0.08 0.10 0.10 0.09 0.09 0.09 0.10 0.10 0.11 0.10 0.08 0.08 0.09 0.08 0.07 0.07 0.07 0.06 0.05 0.06 0.06 0.07 0.08 0.09 0.09 0.06 0.04 0.03 0.02 0.01 0.00
0.06 0.07 0.07 0.07 0.06 0.07 0.08 0.09 0.09 0.08 0.08 0.07 0.07 0.07 0.08 0.10 0.10 0.10 0.10 0.10 0.11 0.10 0.09 0.09 0.09 0.08 0.07 0.06 0.07 0.07 0.05 0.05 0.06 0.07 0.08 0.09 0.10 0.07 0.05 0.04 0.02 0.01 0.01
0.06 0.08 0.09 0.09 0.08 0.08 0.09 0.09 0.09 0.08 0.09 0.09 0.08 0.07 0.08 0.08 0.09 0.10 0.10 0.11 0.11 0.11 0.09 0.10 0.10 0.08 0.08 0.07 0.07 0.09 0.08 0.07 0.05 0.06 0.08 0.09 0.08 0.07 0.06 0.04 0.03 0.02 0.01
0.05 0.08 0.11 0.09 0.09 0.09 0.08 0.08 0.09 0.09 0.09 0.10 0.10 0.09 0.09 0.09 0.09 0.10 0.10 0.10 0.11 0.11 0.11 0.10 0.09 0.08 0.07 0.08 0.09 0.09 0.09 0.09 0.07 0.06 0.07 0.07 0.07 0.05 0.05 0.04 0.03 0.02 0.02
0.05 0.07 0.11 0.12 0.11 0.09 0.10 0.09 0.08 0.08 0.09 0.09 0.10 0.09 0.09 0.09 0.09 0.10 0.10 0.10 0.10 0.10 0.10 0.10 0.08 0.07 0.06 0.06 0.07 0.08 0.10 0.10 0.10 0.08 0.06 0.06 0.05 0.04 0.04 0.03 0.03 0.03 0.02
0.06 0.07 0.08 0.13 0.14 0.11 0.09 0.09 0.09 0.08 0.08 0.08 0.08 0.08 0.09 0.10 0.11 0.10 0.10 0.10 0.10 0.10 0.10 0.09 0.08 0.07 0.06 0.05 0.06 0.08 0.09 0.09 0.08 0.07 0.06 0.06 0.05 0.03 0.03 0.03 0.03 0.02 0.02
0.08 0.08 0.07 0.10 0.14 0.13 0.10 0.08 0.09 0.08 0.07 0.07 0.07 0.07 0.08 0.09 0.10 0.09 0.10 0.09 0.08 0.08 0.09 0.07 0.07 0.05 0.05 0.05 0.06 0.09 0.10 0.11 0.10 0.08 0.05 0.05 0.04 0.04 0.03 0.03 0.03 0.02 0.02
0.08 0.08 0.08 0.10 0.13 0.14 0.12 0.10 0.09 0.09 0.08 0.08 0.08 0.08 0.07 0.08 0.09 0.09 0.08 0.08 0.08 0.07 0.08 0.08 0.06 0.05 0.06 0.06 0.08 0.10 0.11 0.12 0.12 0.10 0.06 0.04 0.04 0.04 0.04 0.03 0.03 0.02 0.02
0.08 0.08 0.09 0.10 0.12 0.13 0.13 0.12 0.11 0.10 0.09 0.10 0.11 0.10 0.09 0.08 0.08 0.07 0.06 0.07 0.07 0.06 0.07 0.07 0.06 0.05 0.06 0.07 0.10 0.10 0.09 0.09 0.09 0.08 0.06 0.05 0.05 0.05 0.04 0.03 0.02 0.02 0.01
MSLP
1012.82 1012.61 1012.35 1012.06 1011.73 1011.38 1011.01 1010.62 1010.19 1009.74 1009.28 1008.81 1008.35 1007.93 1007.57 1007.28 1007.06 1006.93 1006.87 1006.87 1006.92 1006.99 1007.09 1007.21 1007.36 1007.55 1007.77 1008.04 1008.35 1008.71 1009.11 1009.55 1010.03 1010.54 1011.06 1011.61 1012.15 1012.68 1013.17 1013.62 1014.00 1014.32 1014.57
1012.90 1012.72 1012.50 1012.25 1011.97 1011.67 1011.34 1010.98 1010.58 1010.14 1009.66 1009.16 1008.65 1008.15 1007.68 1007.27 1006.93 1006.68 1006.50 1006.40 1006.37 1006.40 1006.48 1006.61 1006.78 1006.99 1007.25 1007.54 1007.86 1008.23 1008.64 1009.09 1009.59 1010.12 1010.69 1011.28 1011.88 1012.45 1012.98 1013.44 1013.83 1014.14 1014.38
1012.90 1012.76 1012.60 1012.42 1012.21 1011.97 1011.69 1011.36 1010.98 1010.55 1010.05 1009.52 1008.95 1008.38 1007.82 1007.29 1006.83 1006.44 1006.14 1005.94 1005.82 1005.80 1005.86 1005.99 1006.18 1006.42 1006.71 1007.03 1007.38 1007.76 1008.18 1008.64 1009.15 1009.71 1010.32 1010.94 1011.58 1012.19 1012.75 1013.24 1013.64 1013.95 1014.19
1012.81 1012.74 1012.65 1012.54 1012.40 1012.23 1012.00 1011.71 1011.35 1010.92 1010.42 1009.85 1009.24 1008.60 1007.96 1007.35 1006.78 1006.28 1005.87 1005.55 1005.35 1005.26 1005.28 1005.39 1005.59 1005.85 1006.16 1006.51 1006.89 1007.29 1007.72 1008.20 1008.72 1009.30 1009.92 1010.57 1011.24 1011.87 1012.46 1012.97 1013.39 1013.71 1013.96
1012.65 1012.64 1012.63 1012.60 1012.54 1012.43 1012.26 1012.00 1011.66 1011.23 1010.72 1010.14 1009.51 1008.84 1008.15 1007.47 1006.82 1006.23 1005.71 1005.30 1005.00 1004.82 1004.77 1004.85 1005.02 1005.29 1005.61 1005.98 1006.38 1006.80 1007.26 1007.74 1008.28 1008.86 1009.49 1010.16 1010.83 1011.49 1012.09 1012.62 1013.06 1013.40 1013.66
1012.44 1012.49 1012.54 1012.59 1012.60 1012.56 1012.43 1012.21 1011.89 1011.48 1010.98 1010.40 1009.77 1009.10 1008.40 1007.69 1006.99 1006.33 1005.72 1005.20 1004.79 1004.52 1004.38 1004.37 1004.50 1004.74 1005.06 1005.43 1005.85 1006.29 1006.76 1007.26 1007.81 1008.39 1009.02 1009.68 1010.36 1011.02 1011.64 1012.19 1012.65 1013.02 1013.31
1012.19 1012.28 1012.40 1012.51 1012.58 1012.59 1012.51 1012.32 1012.04 1011.65 1011.18 1010.64 1010.04 1009.40 1008.72 1008.02 1007.30 1006.59 1005.90 1005.28 1004.75 1004.35 1004.09 1003.98 1004.02 1004.20 1004.49 1004.86 1005.29 1005.75 1006.24 1006.75 1007.30 1007.88 1008.50 1009.16 1009.82 1010.48 1011.11 1011.68 1012.17 1012.58 1012.92
1011.91 1012.03 1012.19 1012.35 1012.47 1012.53 1012.49 1012.35 1012.10 1011.76 1011.34 1010.86 1010.32 1009.74 1009.12 1008.45 1007.73 1006.98 1006.23 1005.51 1004.85 1004.30 1003.89 1003.65 1003.59 1003.69 1003.93 1004.27 1004.70 1005.18 1005.69 1006.22 1006.78 1007.36 1007.97 1008.60 1009.26 1009.92 1010.55 1011.14 1011.67 1012.13 1012.53
1011.59 1011.73 1011.92 1012.11 1012.28 1012.38 1012.38 1012.28 1012.09 1011.80 1011.45 1011.04 1010.59 1010.10 1009.54 1008.92 1008.23 1007.46 1006.65 1005.82 1005.03 1004.33 1003.76 1003.37 1003.18 1003.18 1003.36 1003.68 1004.11 1004.60 1005.13 1005.69 1006.26 1006.84 1007.44 1008.06 1008.71 1009.36 1010.00 1010.62 1011.20 1011.72 1012.18
1011.23 1011.37 1011.58 1011.80 1012.00 1012.14 1012.18 1012.13 1011.98 1011.76 1011.48 1011.16 1010.80 1010.40 1009.93 1009.37 1008.70 1007.93 1007.06 1006.14 1005.22 1004.37 1003.65 1003.11 1002.79 1002.70 1002.81 1003.10 1003.53 1004.04 1004.60 1005.18 1005.77 1006.36 1006.95 1007.57 1008.20 1008.85 1009.51 1010.16 1010.79 1011.38 1011.93
1010.80 1010.95 1011.17 1011.41 1011.63 1011.80 1011.88 1011.86 1011.77 1011.61 1011.41 1011.18 1010.91 1010.59 1010.20 1009.70 1009.06 1008.28 1007.38 1006.38 1005.36 1004.38 1003.52 1002.85 1002.42 1002.24 1002.30 1002.56 1002.99 1003.52 1004.11 1004.72 1005.33 1005.93 1006.53 1007.14 1007.77 1008.42 1009.10 1009.79 1010.48 1011.14 1011.77
1010.29 1010.45 1010.68 1010.94 1011.18 1011.37 1011.47 1011.50 1011.45 1011.34 1011.21 1011.04 1010.85 1010.61 1010.28 1009.83 1009.23 1008.46 1007.53 1006.48 1005.38 1004.31 1003.35 1002.58 1002.06 1001.81 1001.82 1002.07 1002.50 1003.05 1003.67 1004.31 1004.94 1005.56 1006.17 1006.78 1007.42 1008.08 1008.78 1009.51 1010.26 1010.99 1011.69
1009.70 1009.87 1010.12 1010.40 1010.66 1010.86 1010.99 1011.04 1011.02 1010.95 1010.85 1010.74 1010.60 1010.42 1010.14 1009.74 1009.17 1008.42 1007.48 1006.42 1005.28 1004.15 1003.13 1002.29 1001.71 1001.41 1001.39 1001.63 1002.06 1002.63 1003.27 1003.94 1004.60 1005.24 1005.87 1006.49 1007.14 1007.82 1008.55 1009.32 1010.11 1010.91 1011.67
1009.04 1009.25 1009.52 1009.81 1010.08 1010.30 1010.43 1010.49 1010.49 1010.44 1010.37 1010.28 1010.17 1010.02 1009.78 1009.42 1008.89 1008.16 1007.25 1006.18 1005.04 1003.90 1002.85 1001.98 1001.37 1001.04 1001.00 1001.23 1001.66 1002.24 1002.90 1003.60 1004.29 1004.95 1005.60 1006.25 1006.92 1007.62 1008.38 1009.18 1010.01 1010.85 1011.67
1008.36 1008.61 1008.91 1009.22 1009.50 1009.72 1009.85 1009.91 1009.90 1009.84 1009.77 1009.69 1009.59 1009.46 1009.25 1008.91 1008.42 1007.73 1006.85 1005.83 1004.71 1003.58 1002.54 1001.67 1001.04 1000.70 1000.64 1000.85 1001.28 1001.86 1002.54 1003.26 1003.98 1004.68 1005.36 1006.05 1006.74 1007.48 1008.26 1009.09 1009.95 1010.82 1011.66
1007.70 1008.00 1008.33 1008.66 1008.94 1009.15 1009.27 1009.31 1009.28 1009.21 1009.12 1009.03 1008.93 1008.80 1008.60 1008.29 1007.83 1007.19 1006.36 1005.39 1004.32 1003.23 1002.22 1001.35 1000.72 1000.37 1000.29 1000.48 1000.89 1001.48 1002.17 1002.91 1003.67 1004.42 1005.15 1005.88 1006.62 1007.40 1008.20 1009.05 1009.92 1010.79 1011.64
1007.13 1007.46 1007.82 1008.16 1008.44 1008.63 1008.73 1008.73 1008.67 1008.57 1008.46 1008.35 1008.24 1008.11 1007.92 1007.63 1007.20 1006.60 1005.83 1004.92 1003.90 1002.86 1001.88 1001.03 1000.40 1000.04 999.94 1000.11 1000.51 1001.09 1001.80 1002.57 1003.38 1004.19 1004.99 1005.78 1006.58 1007.39 1008.23 1009.08 1009.95 1010.81 1011.64
1006.67 1007.04 1007.41 1007.74 1008.00 1008.17 1008.23 1008.20 1008.10 1007.97 1007.83 1007.69 1007.57 1007.43 1007.25 1006.98 1006.59 1006.03 1005.31 1004.44 1003.48 1002.48 1001.53 1000.71 1000.08 999.70 999.59 999.74 1000.14 1000.72 1001.45 1002.27 1003.14 1004.02 1004.90 1005.78 1006.64 1007.50 1008.36 1009.22 1010.07 1010.90 1011.69
1006.33 1006.71 1007.08 1007.40 1007.62 1007.74 1007.76 1007.69 1007.55 1007.39 1007.23 1007.08 1006.94 1006.80 1006.63 1006.37 1005.99 1005.47 1004.78 1003.96 1003.04 1002.08 1001.16 1000.36 999.74 999.36 999.24 999.39 999.79 1000.39 1001.16 1002.04 1002.98 1003.96 1004.93 1005.89 1006.82 1007.74 1008.62 1009.48 1010.30 1011.09 1011.82
1006.11 1006.48 1006.82 1007.09 1007.27 1007.33 1007.30 1007.18 1007.01 1006.82 1006.64 1006.48 1006.35 1006.21 1006.03 1005.78 1005.42 1004.91 1004.25 1003.45 1002.56 1001.64 1000.75 999.97 999.37 999.00 998.90 999.07 999.49 1000.14 1000.96 1001.91 1002.94 1004.01 1005.07 1006.12 1007.13 1008.09 1008.99 1009.84 1010.63 1011.37 1012.04
1005.95 1006.29 1006.57 1006.78 1006.89 1006.89 1006.80 1006.64 1006.44 1006.24 1006.05 1005.89 1005.75 1005.61 1005.43 1005.18 1004.82 1004.31 1003.66 1002.88 1002.01 1001.12 1000.27 999.53 998.97 998.64 998.59 998.80 999.27 999.98 1000.87 1001.90 1003.01 1004.17 1005.32 1006.44 1007.51 1008.51 1009.43 1010.27 1011.03 1011.72 1012.33
1005.81 1006.08 1006.29 1006.41 1006.44 1006.38 1006.23 1006.03 1005.81 1005.60 1005.42 1005.26 1005.13 1004.99 1004.80 1004.53 1004.15 1003.63 1002.98 1002.21 1001.37 1000.51 999.71 999.03 998.54 998.29 998.30 998.59 999.14 999.91 1000.88 1001.98 1003.17 1004.40 1005.62 1006.80 1007.91 1008.93 1009.86 1010.69 1011.43 1012.07 1012.64
1005.63 1005.81 1005.93 1005.96 1005.90 1005.77 1005.57 1005.34 1005.12 1004.91 1004.74 1004.59 1004.46 1004.31 1004.11 1003.81 1003.40 1002.86 1002.19 1001.42 1000.61 999.80 999.06 998.47 998.08 997.94 998.06 998.44 999.08 999.94 1000.98 1002.14 1003.38 1004.65 1005.90 1007.11 1008.23 1009.27 1010.20 1011.02 1011.74 1012.37 1012.91
1005.35 1005.44 1005.46 1005.40 1005.26 1005.06 1004.83 1004.59 1004.36 1004.17 1004.01 1003.88 1003.74 1003.58 1003.34 1003.01 1002.56 1001.98 1001.29 1000.53 999.74 999.00 998.36 997.88 997.62 997.60 997.86 998.36 999.10 1000.04 1001.13 1002.32 1003.58 1004.85 1006.10 1007.29 1008.40 1009.43 1010.35 1011.18 1011.90 1012.53 1013.08
1004.96 1004.95 1004.88 1004.73 1004.53 1004.29 1004.03 1003.79 1003.58 1003.41 1003.27 1003.14 1003.00 1002.81 1002.54 1002.16 1001.65 1001.03 1000.32 999.57 998.82 998.16 997.62 997.28 997.17 997.31 997.70 998.33 999.17 1000.17 1001.29 1002.49 1003.72 1004.95 1006.15 1007.30 1008.38 1009.38 1010.30 1011.13 1011.88 1012.54 1013.13
1004.45 1004.36 1004.20 1003.99 1003.75 1003.48 1003.23 1003.00 1002.82 1002.67 1002.55 1002.43 1002.28 1002.05 1001.73 1001.28 1000.72 1000.05 999.33 998.59 997.90 997.32 996.91 996.72 996.77 997.07 997.61 998.36 999.28 1000.32 1001.45 1002.62 1003.80 1004.95 1006.07 1007.15 1008.17 1009.14 1010.05 1010.90 1011.69 1012.42 1013.08
Thickness
5679 5680 5681 5683 5684 5685 5686 5687 5687 5689 5690 5691 5691 5691 5691 5692 5692 5692 5692 5691 5689 5687 5685 5683 5681 5679 5676 5673 5670 5668 5665 5662 5659 5656 5653 5651 5648 5645 5642 5640 5637 5634 5631
5669 5670 5671 5673 5674 5675 5677 5678 5679 5680 5681 5683 5684 5684 5685 5686 5686 5686 5685 5685 5684 5682 5680 5678 5677 5675 5672 5669 5666 5663 5660 5657 5654 5652 5649 5646 5643 5640 5637 5634 5632 5629 5626
5657 5659 5660 5662 5663 5665 5666 5667 5669 5670 5671 5673 5675 5677 5678 5679 5679 5679 5678 5678 5676 5675 5674 5673 5672 5670 5668 5665 5662 5659 5656 5653 5650 5647 5644 5641 5638 5636 5633 5630 5627 5624 5621
5646 5646 5647 5649 5651 5653 5655 5656 5657 5658 5660 5662 5664 5666 5669 5670 5671 5672 5671 5671 5670 5669 5668 5667 5666 5665 5664 5661 5658 5655 5651 5648 5645 5642 5639 5636 5633 5631 5628 5625 5621 5618 5615
5634 5634 5635 5637 5638 5640 5642 5644 5645 5646 5648 5650 5653 5656 5658 5660 5661 5663 5663 5663 5663 5662 5661 5660 5659 5659 5658 5656 5654 5650 5647 5643 5640 5637 5634 5631 5628 5626 5623 5620 5616 5613 5609
5620 5621 5621 5623 5624 5625 5627 5629 5631 5633 5635 5637 5640 5643 5646 5648 5650 5652 5654 5655 5655 5655 5654 5653 5652 5652 5651 5650 5648 5645 5642 5639 5635 5632 5629 5626 5623 5621 5617 5614 5611 5607 5604
5606 5607 5607 5608 5609 5610 5612 5614 5616 5618 5620 5622 5623 5627 5631 5635 5639 5641 5642 5644 5646 5647 5647 5646 5645 5645 5644 5644 5642 5640 5637 5634 5630 5627 5625 5621 5618 5615 5612 5608 5605 5602 5598
5592 5593 5594 5594 5594 5595 5597 5599 5600 5602 5605 5607 5607 5609 5613 5619 5625 5629 5630 5632 5635 5637 5638 5639 5638 5638 5637 5637 5636 5634 5631 5629 5625 5622 5620 5616 5613 5610 5607 5603 5599 5596 5592
5579 5579 5579 5579 5580 5580 5581 5583 5585 5586 5589 5592 5594 5594 5596 5604 5609 5615 5619 5621 5624 5625 5628 5629 5630 5631 5630 5630 5629 5628 5625 5622 5620 5617 5614 5611 5608 5605 5601 5596 5593 5589 5585
5567 5565 5565 5565 5565 5565 5566 5568 5570 5571 5573 5577 5579 5582 5585 5589 5592 5598 5604 5609 5612 5614 5617 5619 5621 5622 5623 5623 5622 5621 5618 5615 5613 5611 5608 5606 5602 5599 5595 5590 5587 5583 5579
5554 5552 5551 5551 5550 5551 5552 5553 5555 5556 5559 5562 5565 5568 5571 5574 5579 5583 5589 5595 5599 5603 5606 5609 5612 5613 5615 5615 5615 5613 5611 5609 5607 5604 5602 5600 5596 5593 5589 5584 5580 5576 5572
5540 5539 5537 5536 5536 5536 5538 5539 5541 5543 5545 5549 5552 5555 5559 5562 5568 5571 5577 5583 5587 5591 5595 5599 5602 5604 5606 5606 5607 5605 5603 5601 5600 5597 5595 5593 5589 5585 5582 5578 5574 5569 5564
5525 5525 5523 5522 5522 5523 5525 5526 5528 5530 5533 5537 5540 5545 5549 5553 5558 5562 5567 5570 5574 5578 5583 5588 5592 5595 5597 5597 5597 5597 5596 5594 5592 5590 5588 5585 5582 5578 5575 5571 5566 5561 5556
5512 5512 5510 5510 5510 5511 5513 5514 5516 5520 5523 5526 5530 5535 5539 5543 5548 5552 5557 5559 5561 5565 5571 5577 5581 5586 5588 5589 5588 5588 5587 5585 5584 5582 5580 5577 5574 5570 5567 5563 5558 5553 5548
5500 5499 5498 5499 5500 5501 5503 5504 5507 5510 5514 5518 5521 5526 5529 5534 5538 5543 5547 5551 5553 5556 5562 5567 5571 5576 5578 5579 5579 5579 5578 5577 5575 5574 5572 5569 5565 5562 5559 5554 5550 5545 5539
5488 5488 5488 5489 5490 5492 5494 5496 5499 5502 5505 5510 5513 5518 5522 5525 5530 5534 5538 5543 5547 5549 5553 5558 5562 5567 5568 5569 5569 5570 5570 5568 5567 5565 5563 5560 5557 5554 5550 5546 5541 5536 5531
5478 5479 5480 5481 5482 5484 5487 5490 5492 5495 5498 5502 5506 5511 5515 5518 5522 5526 5530 5535 5539 5542 5544 5548 5552 5555 5556 5558 5558 5559 5560 5560 5558 5557 5555 5552 5549 5546 5542 5538 5533 5528 5523
5470 5471 5472 5473 5475 5478 5481 5483 5486 5488 5491 5495 5500 5504 5508 5511 5515 5519 5524 5528 5533 5536 5537 5539 5542 5544 5547 5548 5548 5549 5551 5551 5550 5548 5547 5545 5542 5539 5535 5531 5526 5521 5515
5461 5463 5464 5466 5469 5472 5475 5478 5480 5482 5485 5489 5494 5498 5502 5504 5508 5513 5517 5522 5526 5530 5532 5532 5534 5535 5536 5538 5538 5540 5542 5542 5541 5540 5539 5538 5535 5531 5527 5523 5518 5513 5507
5453 5456 5458 5460 5463 5467 5470 5472 5474 5476 5479 5484 5489 5493 5496 5500 5504 5508 5512 5516 5520 5522 5524 5525 5526 5526 5527 5528 5530 5532 5533 5532 5532 5532 5531 5530 5527 5523 5519 5515 5510 5505 5499
5446 5449 5452 5455 5458 5462 5465 5468 5470 5472 5476 5479 5483 5487 5492 5496 5500 5503 5508 5512 5515 5517 5517 5518 5518 5518 5520 5521 5525 5527 5526 5523 5523 5523 5522 5521 5518 5515 5511 5507 5502 5497 5491
5440 5443 5446 5450 5454 5458 5462 5465 5466 5470 5474 5477 5480 5484 5488 5491 5496 5500 5504 5508 5513 5515 5515 5515 5515 5517 5519 5520 5521 5521 5518 5516 5516 5516 5514 5511 5510 5507 5503 5499 5494 5489 5483
5434 5438 5442 5445 5449 5454 5458 5463 5465 5468 5472 5475 5478 5481 5485 5489 5492 5496 5499 5503 5508 5511 5514 5515 5515 5517 5517 5519 5517 5516 5514 5515 5514 5511 5507 5503 5500 5498 5494 5490 5486 5481 5476
5428 5432 5437 5441 5445 5451 5456 5460 5463 5466 5469 5473 5476 5480 5483 5486 5489 5492 5495 5497 5501 5504 5507 5510 5512 5514 5513 5514 5514 5514 5510 5506 5502 5501 5500 5495 5491 5488 5486 5481 5478 5473 5467
5424 5428 5433 5438 5443 5448 5453 5457 5460 5464 5467 5471 5475 5478 5481 5484 5487 5489 5491 5493 5495 5497 5500 5503 5505 5506 5507 5508 5507 5505 5502 5501 5496 5492 5491 5488 5484 5480 5476 5472 5469 5464 5459
5419 5424 5430 5435 5441 5446 5451 5455 5458 5462 5465 5469 5472 5475 5478 5482 5484 5486 5489 5490 5491 5492 5493 5495 5496 5498 5499 5500 5501 5502 5503 5500 5493 5486 5484 5481 5476 5472 5466 5463 5460 5456 5451